Skip Page Navigation
NASA JPL Caltech
NASA Logo - Jet Propulsion Laboratory + View the NASA Portal
+ Center for Near-Earth Object Studies
JPL Home Earth Solar System Stars & Galaxies Technology
JPL Solar System Dynamics
BODIES ORBITS EPHEMERIDES TOOLS PHYSICAL DATA DISCOVERY FAQ SITE MAP
IMPORTANT: The SSD Announcement email list is now available. Major changes are coming in the near future, including possible hostname and/or URL changes. To be notified of such changes, subscribe to this email list.

Please visit this page for more details.


JPL Small-Body Database Browser
Search: [ help ]  
35502 (1998 FP41)
Classification: Main-belt Asteroid          SPK-ID: 2035502
Ephemeris | Orbit Diagram | Orbital Elements | Mission Design | Physical Parameters | Discovery Circumstances | Close-Approach Data ]

[ show orbit diagram ]
Orbital Elements at Epoch 2459000.5 (2020-May-31.0) TDB
Reference: JPL 25 (heliocentric ecliptic J2000)
 Element Value Uncertainty (1-sigma)   Units 
e .1169861926519698 4.1147e-08  
a 2.59764405295795 1.1773e-08 au
q 2.293755565337368 1.0633e-07 au
i 1.556030916424557 4.5512e-06 deg
node 332.9104409381187 0.00015035 deg
peri 65.10235921871924 0.00015152 deg
M 243.2343927317855 2.1134e-05 deg
tp 2459496.498461768570
(2021-Oct-08.99846177)
9.1532e-05 TDB
period 1529.212671557716
4.19
1.0396e-05
2.846e-08
d
yr
n .2354152608696931 1.6004e-09 deg/d
Q 2.901532540578533 1.315e-08 au
  Orbit Determination Parameters
   # obs. used (total)      1524  
   data-arc span      15400 days (42.16 yr)  
   first obs. used      1977-03-12  
   last obs. used      2019-05-11  
   planetary ephem.      DE431  
   SB-pert. ephem.      SB431-N16  
   condition code      0  
   norm. resid. RMS      .52629  
   source      ORB  
   producer      Otto Matic  
   solution date      2019-May-30 03:54:31  

Additional Information
 Earth MOID = 1.30161 au 
 Jupiter MOID = 2.48827 au 
 T_jup = 3.406 
[ show covariance matrix ]

Ephemeris | Orbit Diagram | Orbital Elements | Mission Design | Physical Parameters | Discovery Circumstances | Close-Approach Data ]

Physical Parameter Table
Parameter Symbol Value Units Sigma Reference Notes
absolute magnitude H 14.3   n/a MPO385040  
diameter diameter 4.107 km 0.140 urn:nasa:pds:neowise_diameters_albedos::2.0[mainbelt] (http://adsabs.harvard.edu/abs/2011ApJ...741...68M)  
geometric albedo albedo 0.219   0.041 urn:nasa:pds:neowise_diameters_albedos::2.0[mainbelt] (http://adsabs.harvard.edu/abs/2011ApJ...741...68M)  

35502 (1998 FP41)          Discovered 1998-Mar-20 by LINEAR at Socorro
Reference: 20020227/Numbers.arcLast Updated: 2004-04-19

[ show close-approach data ]
Alternate Designations
 1998 FP41 = 1977 EF5 = 2000 SJ10 
Ephemeris | Orbit Diagram | Orbital Elements | Mission Design | Physical Parameters | Discovery Circumstances | Close-Approach Data ]
ABOUT SSD CREDITS/AWARDS PRIVACY/COPYRIGHT GLOSSARY LINKS
FirstGov 2020-May-31 05:08 UT
(server date/time)  
NASA Home Page
Site Manager:   Ryan S. Park
Webmaster  Alan B. Chamberlin